Вернуться в каталог

BIOMASS

АктивенНаукаSSO
NORAD 63772·PAYLOAD·🇪🇺 EU

Запущен Apr 29, 2025 с Guiana Space Centre

Loading…

Ближайшие Пролёты (ближайшие 24 часа)

TLE

СвежийSource: Space-Track

Эпоха: Sep 14, 2026, 02:02 UTC

1 63772U 25090A   26257.08502531  .00000722  00000-0  13581-3 0  9999
2 63772  98.0766  83.1224 0001444  87.0869 273.0501 14.67529119 73726

Отслеживайте BIOMASS в реальном времени с AllMySat

Download on the App Store